Space & Earth Science
NORAD ID: 25399
Int'l Code: 1998-043F
Perigee: 817.9 km
Apogee: 818.9 km
Inclination: 98.4 °
Period: 101.1 minutes
Semi major axis: 7189 km
Launch date: July 10, 1998
Source: Germany (GER)
Two Line Element Set (TLE):
1 25399U 98043F 13141.98324954 .00000086 00000-0 55299-4 0 5091
2 25399 098.3734 116.8378 0000704 341.3135 050.8228 14.24182561772554
Source:
NASA's NSSDC Master Catalog entry for SAFIR 2